Погода в Чилгире

Россия / Республика Калмыкия     46˚28′49″N   45˚03′03″E
темп.,
°C
ветер,
м/с
пор.,
м/с
влажн.,
%
обл.,
%
осадки,
мм/ч
давл.,
гПа
погр.,
м
15 января, пт
пт1500:00с3384100 0.0 100776
03:00−1˚ссв358683 0.0 1006137
06:00−1˚св3596100 0.0 1005222
09:00всв2389100 0.0 1004296
12:00зсз3498100 2.8 1005257
15:00+1˚зсз3695100 4.7 1005395
18:00−1˚зсз6128496 0.0 1007578
21:00−2˚зсз7138488 0.0 1008552
16 января, сб
сб1600:00−3˚з5128678 0.0 1011531
03:00−3˚з398674 0.0 1013403
06:00−3˚юз48910 0.0 1014252
09:00−2˚юз59870 0.0 1015301
12:00+3˚юз8117242 0.0 1016839
15:00+2˚зюз597846 0.0 1016878
18:00−2˚з387215 0.0 1017179
21:00−3˚з117844 0.0 101822
17 января, вс
вс1700:00−3˚ссв2380100 0.0 1017150
03:00−4˚св358290 0.0 1016280
06:00−4˚всв467592 0.0 1015399
09:00−4˚св586996 0.0 1014396
12:00−3˚св6864100 0.0 1012462
15:00−3˚св6962100 0.0 1010514
18:00−4˚св71167100 0.0 1010518
21:00−5˚св71070100 0.0 1010502
18 января, пн
пн1800:00−5˚св71170100 0.0 1009484
03:00−6˚св5774100 0.0 1008507
06:00−7˚ссв6889100 0.3 1009401
09:00−8˚с5690100 1.4 1011340
12:00−7˚сз5680100 0.4 1012537
15:00−6˚сз6977100 0.4 1013748
18:00−8˚сз5982100 0.0 1016638
21:00−8˚сз5886100 0.0 1017526
19 января, вт
вт1900:00−10˚сз6984100 0.0 1018355
03:00−10˚сз5783100 0.0 1020371
06:00−10˚зсз3584100 0.0 1020289
09:00−8˚з347993 0.0 1022305
12:00−5˚з237179 0.0 1021417
15:00−4˚зюз347062 0.0 1020633
18:00−5˚ююз3482100 0.0 1021107
21:00−5˚з3494100 0.2 1022302